User: anonymous   Login
Location: ??????
(38.0677°N, 22.9870°E)
Time: 12:29:26
(UTC+00:00)
Language:

Okean 2 Rocket - Orbit

View from above orbital plane
View from above orbital plane
View from above satellite
View from above satellite

Ground track
Ground track

The orbit data is extracted from the following two-line orbital elements,

1 20511U 90018B   24203.14358078  .00000858  00000-0  10738-3 0  9997
2 20511  82.5202  60.3243 0015098 252.7049 107.2513 14.81116249855330
Epoch (UTC): 21 July 2024 03:26:45
Eccentricity: 0.0015098
inclination: 82.5202°
perigee height: 615 km
apogee height: 636 km
right ascension of ascending node: 60.3243°
argument of perigee: 252.7049°
revolutions per day: 14.81116249
mean anomaly at epoch: 107.2513°
orbit number at epoch: 85533

The dashed part of the orbit path shows where the satellite is in the earth's shadow,  

DLR